User: anonymous   Login
Location: Krakow
(50.0830°N, 19.9170°E)
Time: 01:03:01
(UTC+02:00)
Language:

AO-73 - Orbit

View from above orbital plane
View from above orbital plane
View from above satellite
View from above satellite

Ground track
Ground track

The orbit data is extracted from the following two-line orbital elements,

1 39444U 13066AE  24151.44060814  .00006182  00000-0  60389-3 0  9996
2 39444  97.7186 110.8918 0047570 197.6628 162.2939 14.91884517567462
Epoch (UTC): 30 May 2024 10:34:28
Eccentricity: 0.0047570
inclination: 97.7186°
perigee height: 559 km
apogee height: 625 km
right ascension of ascending node: 110.8918°
argument of perigee: 197.6628°
revolutions per day: 14.91884517
mean anomaly at epoch: 162.2939°
orbit number at epoch: 56746

The dashed part of the orbit path shows where the satellite is in the earth's shadow,  

DLR